Location: Peterborough
(44.3091°N, 78.3197°W)
Time: 03:20:35
(UTC-04:00)

Tiros 1 - Pass Details

Date: 08 April 2023
Orbit: 627 x 661 km, 48.4° (Epoch: 09 June)

Event Time Altitude Azimuth Distance (km) Brightness Sun altitude
Rises 08:35:08 0° 281° (W) 2,990 9.9 19.3°
Reaches altitude 10° 08:38:56 10° 251° (WSW) 2,073 9.3 20.0°
Maximum altitude 08:40:44 12° 229° (SW) 1,937 9.3 20.3°
Drops below altitude 10° 08:42:31 10° 207° (SSW) 2,066 9.6 20.6°
Sets 08:46:18 0° 176° (S) 2,968 10.7 21.3°
